This demonstration page uses our WeatherBlox Daily Observations layout. Learn more.

Hourly Observations for May 12, 2015

Temp ( °F °C ) Dew Point ( °F °C ) Humidity (%) Winds ( mph kmh ) Pressure ( in mb ) Visibility ( mi km ) Precip ( " mm )
12:15 am 00:15 Clear 40 4.6 30 -1 67 67 W 7 11 30.24 1024 10 16.0934 0 0
12:35 am 00:35 Clear 40 4.5 29 -1.5 65 65 W 6 9 30.24 1024 10 16.0934 0 0
12:55 am 00:55 Clear 40 4.2 28 -2 64 64 W 6 9 30.3 1026 10 16.0934 0 0
1:15 am 01:15 Clear 40 4.4 28 -2.1 63 63 W 5 7 30.27 1025 10 16.0934 0 0
1:35 am 01:35 Clear 40 4.3 28 -2.1 63 63 W 5 7 30.3 1026 10 16.0934 0 0
1:55 am 01:55 Clear 38 3.4 27 -2.6 65 65 W 3 6 30.3 1026 10 16.0934 0 0
2:15 am 02:15 Clear 38 3.6 28 -2.4 65 65 W 5 7 30.3 1026 10 16.0934 0 0
2:35 am 02:35 Clear 40 4.2 28 -2.4 63 63 W 5 7 30.3 1026 10 16.0934 0 0
2:55 am 02:55 Clear 37 2.8 27 -2.7 67 67 W 5 7 30.3 1026 10 16.0934 0 0
3:15 am 03:15 Clear 37 2.8 28 -2.3 69 69 WSW 5 7 30.3 1026 10 16.0934 0 0
3:35 am 03:35 Clear 38 3.2 28 -2.3 68 68 W 5 7 30.3 1026 10 16.0934 0 0
3:55 am 03:55 Clear 38 3.1 28 -2.1 69 69 WSW 3 6 30.3 1026 10 16.0934 0 0
4:15 am 04:15 Clear 37 3 28 -2.5 67 67 SW 3 6 30.3 1026 10 16.0934 0 0
4:35 am 04:35 Clear 37 2.9 28 -2.5 68 68 Calm 30.3 1026 10 16.0934 0 0
4:55 am 04:55 Clear 36 2.4 27 -2.6 70 70 Calm 30.3 1026 10 16.0934 0 0
5:15 am 05:15 Clear 37 2.5 28 -2.1 72 72 Calm 30.3 1026 10 16.0934 0 0
5:35 am 05:35 Clear 36 2.2 28 -2.5 71 71 Calm 30.27 1025 10 16.0934 0 0
5:55 am 05:55 Clear 34 1.3 28 -2.3 77 77 SSW 5 7 30.33 1027 10 16.0934 0 0
6:15 am 06:15 Clear 33 0.8 28 -2.5 79 79 Calm 30.3 1026 10 16.0934 0 0
6:35 am 06:35 Sunny 33 0.3 28 -2.4 82 82 SSW 5 7 30.33 1027 10 16.0934 0 0
6:55 am 06:55 Sunny 36 2.1 29 -1.8 76 76 SW 7 11 30.3 1026 10 16.0934 0 0
7:15 am 07:15 Sunny 38 3.6 29 -1.7 69 69 SSW 7 11 30.33 1027 10 16.0934 0 0
7:35 am 07:35 Partly Cloudy 44 6.4 31 -0.6 61 61 SSW 7 11 30.3 1026 10 16.0934 0 0
7:55 am 07:55 Partly Cloudy 44 6.5 31 -0.4 62 62 SSW 8 13 30.3 1026 10 16.0934 0 0
8:15 am 08:15 Sunny 46 7.7 32 0 59 59 SSW 12 19 30.3 1026 10 16.0934 0 0
8:35 am 08:35 Sunny 48 8.8 33 0.4 56 56 SSW 9 15 30.27 1025 10 16.0934 0 0
8:55 am 08:55 Sunny 50 9.8 33 0.3 52 52 SSW 12 19 30.27 1025 10 16.0934 0 0
9:15 am 09:15 Sunny 51 10.6 33 0.3 49 49 SSW 14 22 30.27 1025 10 16.0934 0 0
9:35 am 09:35 Sunny 53 11.5 33 0.4 47 47 SSW 13 20 30.24 1024 10 16.0934 0 0
9:55 am 09:55 Sunny 54 12.4 32 0.1 43 43 SSW 14 22 30.24 1024 10 16.0934 0 0
10:15 am 10:15 Sunny 56 13.2 32 -0.1 40 40 S 15 24 30.24 1024 10 16.0934 0 0
10:35 am 10:35 Sunny 58 14.3 32 -0.1 38 38 S 15 24 30.24 1024 10 16.0934 0 0
10:55 am 10:55 Sunny 58 14.5 30 -1.3 34 34 S 15 24 30.21 1023 10 16.0934 0 0
11:15 am 11:15 Sunny 59 15.2 28 -2.4 30 30 S 16 26 30.21 1023 10 16.0934 0 0
11:35 am 11:35 Sunny 61 16.1 28 -2.5 28 28 S 18 30 30.21 1023 10 16.0934 0 0
11:55 am 11:55 Sunny 62 16.5 26 -3.6 25 25 S 20 31 30.21 1023 10 16.0934 0 0
12:15 pm 12:15 Sunny 63 17.1 27 -3 25 25 S 16 26 30.21 1023 10 16.0934 0 0
12:35 pm 12:35 Sunny 64 17.5 28 -2.4 26 26 S 21 33 30.18 1022 10 16.0934 0 0
12:55 pm 12:55 Sunny 64 17.7 29 -1.9 26 26 S 23 37 30.18 1022 10 16.0934 0 0
1:15 pm 13:15 Sunny 65 18.4 30 -1.1 27 27 S 20 31 30.12 1020 10 16.0934 0 0
1:35 pm 13:35 Sunny 66 18.7 30 -1.1 26 26 S 22 35 30.12 1020 10 16.0934 0 0
1:55 pm 13:55 Sunny 66 19.1 31 -0.4 27 27 S 23 37 30.12 1020 10 16.0934 0 0
2:15 pm 14:15 Sunny 66 19.1 32 -0.1 28 28 S 23 37 30.09 1019 10 16.0934 0 0
2:35 pm 14:35 Sunny 68 20 33 0.3 27 27 S 25 41 30.09 1019 10 16.0934 0 0
2:55 pm 14:55 Sunny 68 20.2 33 0.5 27 27 S 24 39 30.09 1019 10 16.0934 0 0
3:15 pm 15:15 Sunny 69 20.8 33 0.7 26 26 S 26 43 30.03 1017 10 16.0934 0 0
3:35 pm 15:35 Sunny 69 20.6 33 0.4 26 26 S 24 39 30.03 1017 10 16.0934 0 0
3:55 pm 15:55 Sunny 70 21.1 33 0.4 25 25 S 26 43 30.03 1017 10 16.0934 0 0
4:15 pm 16:15 Sunny 70 21 33 0.3 25 25 SSW 29 46 30.03 1017 10 16.0934 0 0
4:35 pm 16:35 Sunny 70 21.2 33 0.8 26 26 S 24 39 30.03 1017 10 16.0934 0 0
4:55 pm 16:55 Sunny 70 21.3 34 0.9 26 26 S 29 46 30.03 1017 10 16.0934 0 0
5:15 pm 17:15 Sunny 70 21.3 34 1.3 27 27 S 25 41 30.03 1017 10 16.0934 0 0
5:35 pm 17:35 Sunny 70 21.1 34 1.3 27 27 S 25 41 30 1016 10 16.0934 0 0
5:55 pm 17:55 Sunny 70 21 35 1.5 28 28 S 23 37 30 1016 10 16.0934 0 0
6:15 pm 18:15 Sunny 70 21 35 1.7 28 28 S 24 39 30 1016 10 16.0934 0 0
6:35 pm 18:35 Sunny 69 20.3 35 1.6 29 29 S 17 28 30.03 1017 10 16.0934 0 0
6:55 pm 18:55 Sunny 70 21 35 1.6 28 28 S 26 43 30 1016 10 16.0934 0 0
7:15 pm 19:15 Sunny 69 20.5 35 1.5 28 28 S 25 41 30 1016 10 16.0934 0 0
7:35 pm 19:35 Sunny 68 20.1 34 1.3 29 29 S 24 39 30 1016 10 16.0934 0 0
7:55 pm 19:55 Sunny 67 19.5 35 1.4 30 30 S 17 28 30 1016 10 16.0934 0 0
8:15 pm 20:15 Sunny 66 18.7 35 1.8 32 32 SSE 18 30 30 1016 10 16.0934 0 0
8:35 pm 20:35 Sunny 64 17.8 35 1.7 34 34 SSE 15 24 30 1016 10 16.0934 0 0
8:55 pm 20:55 Clear 62 16.7 36 2 37 37 SSE 13 20 30.03 1017 10 16.0934 0 0
9:15 pm 21:15 Clear 60 15.6 36 2.3 41 41 SSE 14 22 30.06 1018 10 16.0934 0 0
9:35 pm 21:35 Clear 59 15 37 2.6 44 44 SSE 15 24 30.06 1018 10 16.0934 0 0
9:55 pm 21:55 Clear 58 14.5 37 2.7 45 45 SSE 14 22 30.06 1018 10 16.0934 0 0
10:15 pm 22:15 Clear 57 13.7 37 3 49 49 SSE 13 20 30.06 1018 10 16.0934 0 0
10:35 pm 22:35 Clear 56 13.6 38 3.5 51 51 SSE 15 24 30.09 1019 10 16.0934 0 0
10:55 pm 22:55 Clear 56 13.1 38 3.5 52 52 SSE 13 20 30.12 1020 10 16.0934 0 0
11:15 pm 23:15 Clear 56 13.2 38 3.5 52 52 SSE 16 26 30.12 1020 10 16.0934 0 0
11:35 pm 23:35 Clear 56 13.2 38 3.6 52 52 SSE 20 31 30.12 1020 10 16.0934 0 0
11:55 pm 23:55 Clear 55 13 38 3.6 53 53 SSE 21 33 30.12 1020 10 16.0934 0 0

Powered by AerisWeather